Waarnemingen

Advertentie
Mijn weer
Trapani/Birgi, Italië (16429): temperatuur & dauwpunt: 08.08.2018 08:00:00 - 14.08.2018 08:00:00 (CEST)Trapani/Birgi, Italië (16429): windsnelheid: 08.08.2018 08:00:00 - 14.08.2018 08:00:00 (CEST)Trapani/Birgi, Italië (16429): windrichting: 08.08.2018 08:00:00 - 14.08.2018 08:00:00 (CEST)Trapani/Birgi, Italië (16429): luchtdruk: 08.08.2018 08:00:00 - 14.08.2018 08:00:00 (CEST)Trapani/Birgi, Italië (16429): zicht: 08.08.2018 08:00:00 - 14.08.2018 08:00:00 (CEST)Trapani/Birgi, Italië (16429): Zonneschijnduur: 08.08.2018 08:00:00 - 14.08.2018 08:00:00 (CEST)
Datum & Tijd tt [°C] td [°C] ff [km/u] ff [kn] dd ppp [hPa] vv [km] sd [min]
14.08.2018 08:00:00 24,0 21,7 9 5 O 1013,3 8 30
14.08.2018 07:00:00 23,8 22,1 9 5 OZO 1013,2 8 -
14.08.2018 06:00:00 23,8 22,1 9 5 OZO 1013,1 12 -
14.08.2018 05:00:00 24,0 22,4 5 3 O 1013,1 12 -
14.08.2018 04:00:00 24,0 22,4 4 2 O 1013,1 12 -
14.08.2018 03:00:00 24,0 22,8 8 4 ZO 1013,1 12 -
14.08.2018 02:00:00 25,0 23,6 5 3 ZO 1013,1 12 -
14.08.2018 01:00:00 25,6 24,2 5 3 OZO 1013,3 12 -
14.08.2018 00:00:00 26,0 24,6 8 4 ZO 1013,3 12 -
13.08.2018 23:00:00 26,2 24,4 5 3 ZZO 1013,3 10 -
13.08.2018 22:00:00 26,6 24,8 5 3 Z 1013,3 12 -
13.08.2018 21:00:00 27,2 25,4 8 4 ZZW 1013,1 12 -
13.08.2018 20:00:00 28,2 25,2 9 5 ZW 1013,1 12 6
13.08.2018 19:00:00 29,2 25,6 13 7 ZW 1013,2 14 54
13.08.2018 18:00:00 30,0 25,7 16 9 ZW 1013,4 15 60
13.08.2018 17:00:00 30,4 25,0 18 10 ZZW 1013,6 15 60
13.08.2018 16:00:00 30,8 24,2 24 13 ZZW 1014,2 15 60
13.08.2018 15:00:00 31,0 24,4 18 10 ZW 1014,8 14 60
13.08.2018 14:00:00 30,4 25,2 21 11 ZW 1015,1 12 6
13.08.2018 13:00:00 30,8 21,6 22 12 ZZW 1015,4 12 0
13.08.2018 12:00:00 30,4 22,8 16 9 ZZW 1015,4 12 12
13.08.2018 11:00:00 29,2 24,1 13 7 ZW 1015,6 12 0
13.08.2018 10:00:00 28,8 23,2 8 4 Z 1015,6 8 24
13.08.2018 09:00:00 26,4 23,5 8 4 ZZO 1015,5 6 0
13.08.2018 08:00:00 24,4 23,0 9 5 ZO 1015,2 6 0
13.08.2018 07:00:00 23,6 22,4 5 3 OZO 1014,6 8 -
13.08.2018 06:00:00 23,8 23,1 5 3 O 1014,9 12 -
13.08.2018 05:00:00 24,4 2,8 9 5 ZO 1014,8 14 -
13.08.2018 04:00:00 25,0 22,9 5 3 ZO 1015,1 12 -
13.08.2018 03:00:00 25,2 24,0 4 2 O 1015,5 14 -
13.08.2018 02:00:00 25,4 24,2 5 3 ZO 1015,2 14 -
13.08.2018 01:00:00 26,2 25,2 11 6 ZO 1015,5 16 -
13.08.2018 00:00:00 27,2 26,0 16 9 ZO 1015,7 16 -
12.08.2018 23:00:00 27,8 26,0 16 9 OZO 1015,6 16 -
12.08.2018 22:00:00 28,8 22,3 8 4 OZO 1015,5 18 -
12.08.2018 21:00:00 29,4 21,6 8 4 ONO 1015,1 10 -
12.08.2018 20:00:00 29,8 24,0 13 7 N 1015,0 22 24
12.08.2018 19:00:00 30,0 25,3 22 12 N 1015,1 25 60
12.08.2018 18:00:00 30,2 25,3 22 12 NNW 1015,6 25 60
12.08.2018 17:00:00 30,2 24,8 24 13 NNW 1016,1 25 60
12.08.2018 16:00:00 31,0 24,9 26 14 N 1016,5 25 60
12.08.2018 15:00:00 31,6 24,7 29 16 N 1016,8 25 60
12.08.2018 14:00:00 31,8 24,4 24 13 N 1017,1 25 60
12.08.2018 13:00:00 31,6 22,9 21 11 NNW 1017,1 25 60
12.08.2018 12:00:00 31,2 23,1 18 10 NNW 1017,1 25 60
12.08.2018 11:00:00 30,0 23,9 18 10 NNW 1017,1 25 60
12.08.2018 10:00:00 30,0 24,4 13 7 NNW 1017,1 25 60
12.08.2018 09:00:00 28,0 24,0 15 8 N 1017,1 20 60
12.08.2018 08:00:00 25,8 20,6 4 2 N 1017,1 20 6
12.08.2018 07:00:00 23,8 21,3 2 1 ONO 1016,8 18 -
12.08.2018 06:00:00 24,2 22,3 4 2 NNO 1016,7 12 -
12.08.2018 05:00:00 25,0 23,4 4 2 NNO 1016,7 12 -
12.08.2018 04:00:00 25,2 23,4 5 3 NNO 1016,9 12 -
12.08.2018 03:00:00 26,0 24,6 5 3 NNO 1016,9 12 -
12.08.2018 02:00:00 25,6 24,6 5 3 NNO 1017,1 12 -
12.08.2018 01:00:00 26,6 24,6 5 3 NNO 1017,5 12 -
12.08.2018 00:00:00 27,4 25,2 8 4 N 1018,0 12 -
11.08.2018 23:00:00 27,8 25,6 13 7 N 1018,0 12 -
11.08.2018 22:00:00 28,0 25,6 24 13 N 1016,8 12 -
11.08.2018 21:00:00 28,2 25,8 13 7 N 1017,1 12 -
11.08.2018 20:00:00 28,6 25,4 15 8 N 1016,9 18 0
11.08.2018 19:00:00 29,6 26,0 24 13 N 1017,1 22 60
11.08.2018 18:00:00 29,8 26,0 28 15 N 1017,2 22 60
11.08.2018 17:00:00 30,0 25,5 26 14 N 1017,5 22 60
11.08.2018 16:00:00 30,0 24,9 29 16 N 1018,0 22 60
11.08.2018 15:00:00 30,2 25,0 28 15 N 1018,5 22 60
11.08.2018 14:00:00 30,2 24,8 29 16 NNW 1018,8 22 60
11.08.2018 13:00:00 30,0 24,4 29 16 NNW 1019,0 22 60
11.08.2018 12:00:00 30,0 23,9 29 16 N 1019,1 22 60
11.08.2018 11:00:00 30,0 23,9 22 12 NNW 1019,0 22 60
11.08.2018 10:00:00 29,0 23,9 24 13 N 1019,1 22 60
11.08.2018 09:00:00 28,4 22,9 24 13 N 1019,0 22 60
11.08.2018 08:00:00 26,6 22,7 13 7 N 1019,0 20 6
11.08.2018 07:00:00 25,0 23,2 8 4 NNO 1018,4 20 -
11.08.2018 06:00:00 24,0 22,8 5 3 NNO 1018,1 18 -
11.08.2018 05:00:00 24,4 20,7 4 2 N 1018,1 12 -
11.08.2018 04:00:00 23,0 22,2 4 2 N 1018,5 12 -
11.08.2018 03:00:00 23,2 22,4 2 1 - 1019,0 10 -
11.08.2018 02:00:00 24,6 23,4 2 1 N 1019,1 12 -
11.08.2018 01:00:00 25,0 23,6 4 2 N 1019,3 12 -
11.08.2018 00:00:00 26,0 24,4 5 3 NO 1019,3 15 -
10.08.2018 23:00:00 26,8 24,5 8 4 NNO 1019,4 15 -
10.08.2018 22:00:00 27,4 24,5 8 4 W 1019,2 15 -
10.08.2018 21:00:00 28,2 25,0 18 10 N 1019,1 18 -
10.08.2018 20:00:00 29,0 25,8 28 15 N 1018,6 20 18
10.08.2018 19:00:00 30,0 25,5 28 15 NNW 1018,3 22 60
10.08.2018 18:00:00 30,0 25,3 31 17 N 1018,2 22 60
10.08.2018 17:00:00 31,2 25,5 31 17 N 1018,6 22 60
10.08.2018 16:00:00 31,0 25,4 34 18 N 1019,0 22 60
10.08.2018 15:00:00 31,0 25,6 31 17 N 1019,0 22 60
10.08.2018 14:00:00 31,0 25,8 26 14 NNW 1019,1 22 60
10.08.2018 13:00:00 31,2 23,3 18 10 NNW 1019,2 22 60
10.08.2018 12:00:00 31,0 21,8 15 8 NW 1019,2 20 60
10.08.2018 11:00:00 30,4 22,0 15 8 NW 1019,1 20 60
10.08.2018 10:00:00 29,8 23,7 11 6 NW 1019,1 18 60
10.08.2018 09:00:00 28,6 21,9 5 3 O 1019,0 16 60
10.08.2018 08:00:00 24,8 23,0 5 3 ZZO 1018,4 14 0
10.08.2018 07:00:00 23,4 22,7 5 3 OZO 1018,0 14 -
10.08.2018 06:00:00 23,8 22,8 5 3 O 1018,0 14 -
10.08.2018 05:00:00 24,0 23,3 2 1 OZO 1017,8 14 -
10.08.2018 04:00:00 24,4 23,4 4 2 O 1017,2 14 -
10.08.2018 03:00:00 25,0 23,6 4 2 N 1017,1 14 -
10.08.2018 02:00:00 25,0 23,3 5 3 O 1017,1 14 -
10.08.2018 01:00:00 25,6 24,6 4 2 O 1017,1 14 -
10.08.2018 00:00:00 26,4 25,2 5 3 N 1017,1 14 -
09.08.2018 23:00:00 28,0 26,6 8 4 NNW 1017,0 14 -
09.08.2018 22:00:00 28,2 26,8 11 6 NNW 1016,9 14 -
09.08.2018 21:00:00 28,4 26,4 13 7 NW 1016,2 14 -
09.08.2018 20:00:00 29,2 26,4 11 6 NNW 1015,8 15 18
09.08.2018 19:00:00 30,0 26,8 13 7 NNW 1015,8 20 60
09.08.2018 18:00:00 30,0 26,4 16 9 NW 1015,9 18 60
09.08.2018 17:00:00 30,8 26,5 15 8 NW 1016,1 18 60
09.08.2018 16:00:00 31,2 26,2 13 7 W 1016,1 20 60
09.08.2018 15:00:00 31,2 26,0 16 9 W 1016,2 20 60
09.08.2018 14:00:00 31,2 26,2 16 9 WNW 1016,2 20 60
09.08.2018 13:00:00 31,0 25,6 16 9 WNW 1016,2 10 60
09.08.2018 12:00:00 30,0 23,7 15 8 NW 1016,2 20 60
09.08.2018 11:00:00 30,2 23,4 13 7 NNW 1016,1 20 60
09.08.2018 10:00:00 30,0 21,1 5 3 Z 1016,0 20 60
09.08.2018 09:00:00 27,8 21,8 9 5 O 1015,9 20 60
09.08.2018 08:00:00 23,8 21,7 5 3 ZO 1015,9 20 30
09.08.2018 07:00:00 22,6 21,1 8 4 OZO 1015,5 18 -
09.08.2018 06:00:00 22,2 21,4 4 2 ZO 1015,3 10 -
09.08.2018 05:00:00 22,4 21,9 5 3 ONO 1015,1 18 -
09.08.2018 04:00:00 23,0 22,2 4 2 O 1015,1 18 -
09.08.2018 03:00:00 24,0 22,8 4 2 NNO 1015,0 20 -
09.08.2018 02:00:00 25,0 23,4 4 2 ONO 1015,1 20 -
09.08.2018 01:00:00 25,0 22,9 8 4 O 1015,1 20 -
09.08.2018 00:00:00 25,8 23,5 5 3 OZO 1015,0 20 -
08.08.2018 23:00:00 26,0 23,3 4 2 N 1014,9 20 -
08.08.2018 22:00:00 27,2 23,4 4 2 ONO 1014,6 20 -
08.08.2018 21:00:00 28,2 24,4 8 4 NNO 1014,5 20 -
08.08.2018 20:00:00 29,0 24,3 16 9 N 1014,1 20 6
08.08.2018 19:00:00 29,6 23,5 21 11 N 1014,0 15 60
08.08.2018 18:00:00 30,0 22,4 18 10 N 1014,0 15 60
08.08.2018 17:00:00 30,2 22,6 15 8 NNW 1014,5 10 12
08.08.2018 16:00:00 30,0 23,2 11 6 NNW 1015,0 15 6
08.08.2018 15:00:00 31,4 21,9 13 7 O 1015,1 15 48
08.08.2018 14:00:00 28,2 18,9 11 6 NO 1015,4 15 0
08.08.2018 13:00:00 29,2 20,9 13 7 NNO 1015,5 15 0
08.08.2018 12:00:00 28,6 23,1 11 6 NNW 1015,7 15 0
08.08.2018 11:00:00 28,2 22,9 9 5 NNW 1015,4 15 0
08.08.2018 10:00:00 28,2 22,9 11 6 NW 1015,0 14 0
08.08.2018 09:00:00 27,2 23,2 4 2 N 1014,8 14 0
08.08.2018 08:00:00 25,8 22,9 5 3 ONO 1014,2 14 0

tt = temperatuur
td = dauwpunt
ff = windsnelheid
dd = windrichting
ppp = luchtdruk
vv = zicht
sd = Zonneschijnduur

Weerstations in de omgeving